OV1-4 R/B, 2124

Orbit data source: Space-Track

OV1-4 R/B, 2124 is space debris in LEO originally from a launch on Wed, 30 Mar 1966 UTC launched from the Air Force Western Test Range (AFWTR). Debris objects in space refer to the collection of defunct objects orbiting the Earth. Examples of debris include non-operational satellites, rocket bodies, and fragments generated from explosions, collisions, or faulty payload assembly.

Loading next visibility...
OV1-4 R/B details
Identifier
2124, 1966-025D
Orbit
LEO
Last TLE update16 hours ago
Origin
Flag of USUSAF OAR (US)
ManufacturerABL
MissionSpacecraft
Bus & MotorALTAIR, Unknown motor
Mass~125 kg wet, ~125 kg dry
Launch date (UTC)
1966-03-30 (59 years ago)
Launch vehicleUnknown
Launch site
Air Force Western Test Range (AFWTR)
Object type
Payload
Rocket body
Debris
Shape & HBRCyl, 2.1 m
Radar Cross Section1.347 m², Medium (>0.1 m² and < 1m²)

Expand to show TLE details & history

TLE from 16 hours ago
0 OV1-4 R/B
1 02124U 66025D   24355.82825277  .00000456  00000-0  15339-3 0  9997
2 02124 144.5080 204.0215 0080836 186.7520 173.2061 13.87707113976078
Epoch: 2024-12-20T19:52Z
Definitive object data (Epoch: 2024-12-20T19:52:41.039Z)
Latitude0.00002°
Longitude175.96232°
Altitude994.408 km
Speed7.327 km/s
True Right ascension13h 36m 05s
True Declination0° 00' 00"
Sunlit
Object was in daylight at TLE epoch
Visualization TLE readout
Latitude34.27442°
Longitude71.26312°
Altitude933.4 km
Speed7.392 km/s
Apparent Right ascension03h 24m 45s
Apparent Declination0° 15' 15"
Sunlit
Object is in full shadow
Visualization observer readout
Local Sidereal Time10:57:26
Azimuth285.554° WNW
Elevation-17.394°
Doppler factor1
Orbital elements
Apogee altitude998.814 km
Perigee altitude880.505 km
Semi-major axis7,317.796 km
Eccentricity0.0080836
Inclination144.508°
RAAN204.0215°
Arg. of periapsis186.752°
True anomaly173.31459°
Mean anomaly173.2061°
Eccentric anomaly173.26045°
Mean motion3.46715 °/min
BSTAR0.00015339
Orbital period103.83 mins
Loading maneuver chart data...
Loading historical data...
Loading historical data...
Loading historical data...
Loading historical data...
Loading historical data...
Loading historical data...
Loading historical data...

OV1-4 R/B Visibility forecast

Observer location: undefined°, undefined

Span
Click to sort rows by Start time (UTC) header in descending order
Start Az.
Max El. time (UTC)
Max El. Az.
Max El.
End time (UTC)
End Az.
6 mins2024-12-22 05:16:43.430Z118.048° SE2024-12-22 05:19:43.430Z155.659° SSE17.466°2024-12-22 05:22:43.430Z190.955° SSW
9 mins2024-12-22 06:53:43.430Z99.2° ESE2024-12-22 06:57:43.430Z156.199° SSE32.774°2024-12-22 07:02:43.430Z230.247° WSW
10 mins2024-12-22 08:31:43.430Z100.56° ESE2024-12-22 08:36:43.430Z195.716° SSW39.806°2024-12-22 08:41:43.430Z254.984° W
9 mins2024-12-22 10:10:43.430Z121.035° SE2024-12-22 10:14:43.430Z197.853° SSW38.27°2024-12-22 10:19:43.430Z264.723° W
6 mins2024-12-22 11:49:43.430Z155.704° SSE2024-12-22 11:52:43.430Z199.902° SSW27.159°2024-12-22 11:55:43.430Z246.355° WSW
|